TimeCST,TemperatureF,Dew PointF,Humidity,Sea Level PressureIn,VisibilityMPH,Wind Direction,Wind SpeedMPH,Gust SpeedMPH,PrecipitationIn,Events,Conditions,WindDirDegrees,DateUTC
12:15 AM,31.8,28.2,87,30.11,7.0,SSE,6.9,-,N/A,,Clear,150,2013-02-07 06:15:00
12:35 AM,31.8,28.2,87,30.10,7.0,SSE,8.1,-,N/A,,Clear,150,2013-02-07 06:35:00
12:55 AM,31.5,28.2,88,30.09,7.0,SE,8.1,-,N/A,,Clear,130,2013-02-07 06:55:00
1:15 AM,31.6,28.0,87,30.08,7.0,SE,9.2,-,N/A,,Clear,140,2013-02-07 07:15:00
1:35 AM,31.5,28.0,87,30.08,7.0,SSE,4.6,-,N/A,,Clear,150,2013-02-07 07:35:00
1:55 AM,30.9,27.9,88,30.08,5.0,SSE,3.5,-,N/A,,Clear,150,2013-02-07 07:55:00
2:15 AM,30.9,28.0,89,30.08,5.0,SSE,4.6,-,N/A,,Clear,160,2013-02-07 08:15:00
2:35 AM,31.1,28.0,88,30.07,5.0,SE,4.6,-,N/A,,Clear,140,2013-02-07 08:35:00
2:55 AM,31.1,28.0,88,30.06,5.0,SSE,6.9,-,N/A,,Clear,160,2013-02-07 08:55:00
3:15 AM,31.3,28.0,88,30.06,5.0,SE,5.8,-,N/A,,Clear,140,2013-02-07 09:15:00
3:35 AM,31.1,28.2,89,30.06,5.0,SE,6.9,-,N/A,,Clear,140,2013-02-07 09:35:00
3:55 AM,31.3,28.4,89,30.06,5.0,SE,6.9,-,N/A,,Clear,140,2013-02-07 09:55:00
4:15 AM,31.5,28.4,88,30.05,5.0,SE,8.1,-,N/A,,Clear,140,2013-02-07 10:15:00
4:35 AM,31.6,28.4,88,30.05,5.0,SE,8.1,-,N/A,,Clear,140,2013-02-07 10:35:00
4:55 AM,31.8,28.4,87,30.04,5.0,SSE,8.1,-,N/A,,Clear,150,2013-02-07 10:55:00
5:15 AM,32.0,28.4,87,30.04,5.0,SSE,4.6,-,N/A,,Scattered Clouds,150,2013-02-07 11:15:00
5:35 AM,32.0,28.8,88,30.04,7.0,ESE,3.5,-,N/A,,Scattered Clouds,120,2013-02-07 11:35:00
5:55 AM,32.0,28.8,88,30.04,7.0,ESE,4.6,-,N/A,,Clear,120,2013-02-07 11:55:00
6:15 AM,32.0,29.1,89,30.02,5.0,ESE,6.9,-,N/A,,Clear,120,2013-02-07 12:15:00
6:35 AM,32.4,29.1,88,30.02,7.0,SE,9.2,-,N/A,,Clear,140,2013-02-07 12:35:00
6:55 AM,31.8,28.4,87,30.04,7.0,NNW,6.9,-,N/A,,Clear,340,2013-02-07 12:55:00
7:15 AM,32.0,29.3,90,30.03,4.0,Calm,Calm,-,N/A,,Clear,0,2013-02-07 13:15:00
7:35 AM,33.8,30.2,87,30.03,5.0,East,3.5,-,N/A,,Clear,80,2013-02-07 13:35:00
7:55 AM,33.8,30.2,87,30.03,5.0,East,5.8,-,N/A,,Clear,90,2013-02-07 13:55:00
8:15 AM,34.7,31.1,87,30.02,5.0,ESE,5.8,-,N/A,,Clear,110,2013-02-07 14:15:00
8:35 AM,34.9,30.7,85,30.03,5.0,East,3.5,-,N/A,,Haze,80,2013-02-07 14:35:00
8:55 AM,36.3,31.3,82,30.02,5.0,East,5.8,-,N/A,,Haze,100,2013-02-07 14:55:00
9:15 AM,37.4,31.5,79,30.00,7.0,ESE,8.1,-,N/A,,Scattered Clouds,110,2013-02-07 15:15:00
9:35 AM,37.9,31.8,79,30.00,7.0,SE,9.2,-,N/A,,Clear,140,2013-02-07 15:35:00
9:55 AM,38.8,32.2,77,29.99,7.0,SE,9.2,-,N/A,,Scattered Clouds,130,2013-02-07 15:55:00
10:15 AM,39.9,33.1,77,29.98,7.0,SE,9.2,-,N/A,,Mostly Cloudy,140,2013-02-07 16:15:00
10:35 AM,41.0,33.6,75,29.98,7.0,SSE,9.2,-,N/A,,Scattered Clouds,150,2013-02-07 16:35:00
10:55 AM,42.4,33.8,71,29.97,7.0,SSE,8.1,-,N/A,,Clear,150,2013-02-07 16:55:00
11:15 AM,43.9,34.3,69,29.96,10.0,SSE,9.2,-,N/A,,Clear,150,2013-02-07 17:15:00
11:35 AM,44.8,33.8,65,29.95,10.0,SSE,8.1,-,N/A,,Clear,150,2013-02-07 17:35:00
11:55 AM,46.0,34.0,63,29.93,10.0,SE,8.1,-,N/A,,Clear,140,2013-02-07 17:55:00
12:15 PM,47.5,36.1,65,29.92,10.0,SE,8.1,-,N/A,,Clear,130,2013-02-07 18:15:00
12:35 PM,49.5,36.7,61,29.90,7.0,SE,10.4,-,N/A,,Clear,140,2013-02-07 18:35:00
12:55 PM,50.5,36.9,59,29.89,10.0,SE,9.2,-,N/A,,Clear,130,2013-02-07 18:55:00
1:15 PM,52.0,37.9,59,29.87,10.0,SSE,10.4,-,N/A,,Scattered Clouds,150,2013-02-07 19:15:00
1:35 PM,52.7,38.1,58,29.85,10.0,SSE,8.1,-,N/A,,Clear,150,2013-02-07 19:35:00
1:55 PM,52.3,37.2,56,29.84,10.0,SE,10.4,-,N/A,,Scattered Clouds,140,2013-02-07 19:55:00
2:15 PM,52.7,38.1,58,29.84,10.0,SE,6.9,-,N/A,,Mostly Cloudy,140,2013-02-07 20:15:00
2:35 PM,53.8,38.3,56,29.83,10.0,SSE,5.8,-,N/A,,Mostly Cloudy,150,2013-02-07 20:35:00
2:55 PM,54.5,38.5,55,29.82,10.0,SSW,8.1,-,N/A,,Scattered Clouds,200,2013-02-07 20:55:00
3:15 PM,54.1,38.5,55,29.81,10.0,South,9.2,-,N/A,,Scattered Clouds,190,2013-02-07 21:15:00
3:35 PM,52.3,39.2,61,29.81,10.0,SSW,8.1,-,N/A,,Scattered Clouds,200,2013-02-07 21:35:00
3:55 PM,51.8,39.7,63,29.80,10.0,SSW,9.2,-,N/A,,Scattered Clouds,200,2013-02-07 21:55:00
4:15 PM,50.5,40.1,67,29.80,10.0,SSW,5.8,-,N/A,,Mostly Cloudy,210,2013-02-07 22:15:00
4:35 PM,51.1,39.9,66,29.80,10.0,SW,8.1,-,N/A,,Overcast,230,2013-02-07 22:35:00
4:55 PM,50.5,40.1,67,29.80,10.0,SW,9.2,-,N/A,,Overcast,230,2013-02-07 22:55:00
5:15 PM,48.9,41.5,76,29.80,10.0,West,15.0,-,N/A,Rain,Light Rain,260,2013-02-07 23:15:00
5:35 PM,46.8,42.4,85,29.83,7.0,West,15.0,20.7,N/A,,Overcast,260,2013-02-07 23:35:00
5:55 PM,45.1,43.0,92,29.81,4.0,West,13.8,-,0.02,Rain,Light Rain,260,2013-02-07 23:55:00
6:15 PM,44.8,43.0,93,29.83,3.0,West,11.5,17.3,0.01,Rain,Rain,260,2013-02-08 00:15:00
6:35 PM,44.1,42.4,94,29.82,4.0,West,12.7,-,0.03,Rain,Rain,260,2013-02-08 00:35:00
6:55 PM,43.7,42.3,95,29.83,3.0,West,8.1,-,0.07,Rain,Rain,270,2013-02-08 00:55:00
7:15 PM,42.6,41.2,95,29.83,3.0,West,9.2,-,0.03,Rain,Rain,280,2013-02-08 01:15:00
7:35 PM,41.7,40.1,94,29.83,5.0,West,13.8,21.9,0.04,Rain,Light Rain,280,2013-02-08 01:35:00
7:55 PM,40.5,38.8,94,29.83,4.0,West,10.4,-,0.06,Rain,Light Rain,280,2013-02-08 01:55:00
8:15 PM,39.7,38.3,95,29.83,4.0,WNW,11.5,-,0.01,Rain,Light Rain,290,2013-02-08 02:15:00
8:35 PM,39.2,37.6,94,29.83,5.0,WNW,10.4,-,0.01,,Light Drizzle,290,2013-02-08 02:35:00
8:55 PM,38.3,36.7,94,29.85,7.0,WNW,11.5,-,0.01,,Drizzle,300,2013-02-08 02:55:00
9:15 PM,37.6,36.0,94,29.85,7.0,WNW,16.1,-,N/A,Rain,Light Rain,300,2013-02-08 03:15:00
9:35 PM,36.9,35.1,93,29.85,10.0,WNW,15.0,18.4,N/A,,Overcast,300,2013-02-08 03:35:00
9:55 PM,36.1,34.3,93,29.86,7.0,WNW,12.7,-,N/A,,Overcast,300,2013-02-08 03:55:00
10:15 PM,35.6,34.0,94,29.86,5.0,WNW,13.8,-,N/A,,Overcast,300,2013-02-08 04:15:00
10:35 PM,35.6,33.8,93,29.87,7.0,NW,15.0,24.2,N/A,,Overcast,310,2013-02-08 04:35:00
10:55 PM,34.7,32.9,93,29.87,7.0,NW,13.8,25.3,N/A,,Overcast,310,2013-02-08 04:55:00
11:15 PM,34.3,32.5,93,29.88,7.0,NW,16.1,26.5,N/A,,Overcast,310,2013-02-08 05:15:00
11:35 PM,34.0,32.2,93,29.88,7.0,NW,17.3,21.9,N/A,,Overcast,320,2013-02-08 05:35:00
11:55 PM,33.8,32.2,94,29.90,7.0,NW,17.3,21.9,N/A,,Overcast,310,2013-02-08 05:55:00